Weather History for Stanton, MN

Change the Weather History Date:

Saturday, May 31, 2014

  Actual Average (KLVN) Record (KLVN)
Temperature  
Mean Temperature 76 °F -  
Max Temperature 85 °F 75 °F 93 °F (1988)
Min Temperature 68 °F 52 °F 40 °F (1972)
Cooling Degree Days 12    
Growing Degree Days 26 (Base 50)    
Moisture  
Dew Point 61 °F    
Average Humidity 63    
Maximum Humidity 92    
Minimum Humidity 38    
Precipitation  
Precipitation 1.37 in - - ()
Sea Level Pressure  
Sea Level Pressure 30.00 in    
Wind  
Wind Speed 10 mph (South)    
Max Wind Speed 34 mph    
Max Gust Speed 41 mph    
Visibility 10 miles    
Events Rain , Thunderstorm    
Averages and records for this station are not official NWS values.
T = Trace of Precipitation, MM = Missing Value Source: NWS Daily Summary

Daily Weather History Graph

Daily Weather History Graph

Search for Another Location

Airport:

Trip Planner

Search our weather history database for the weather conditions in past years. The results will help you decide how hot, cold, wet, or windy it might be!

Date:

Astronomy

May. 31, 2014 Rise Set
Actual Time 5:31 AM CDT 8:48 PM CDT
Civil Twilight 4:55 AM CDT 9:24 PM CDT
Nautical Twilight 4:09 AM CDT 10:11 PM CDT
Astronomical Twilight 3:11 AM CDT 11:09 PM CDT
Moon 8:11 AM CDT (5/31) 11:03 PM CDT (5/31)
Length of Visible Light 16h 29m
Length of Day
15h 17m
Waxing Crescent, 8% of the Moon is Illuminated
May 31
Waxing Crescent
Jun 5
First Quarter
Jun 12
Full
Jun 19
Last Quarter
Jun 27
New

Hourly Weather History & Observations

Time (CDT) Temp. Heat Index Dew Point Humidity Pressure Visibility Wind Dir Wind Speed Gust Speed Precip Events Conditions
12:12 AM 77.0 °F - 49.5 °F 38% 30.07 in 10.0 mi SSE 12.7 mph - N/A   Clear
12:32 AM 76.8 °F - 50.0 °F 39% 30.07 in 10.0 mi SSE 13.8 mph - N/A   Clear
12:52 AM 77.0 °F - 50.9 °F 40% 30.07 in 10.0 mi SSE 11.5 mph - N/A   Clear
1:12 AM 76.1 °F - 52.0 °F 43% 30.07 in 10.0 mi SSE 12.7 mph 18.4 mph N/A   Clear
1:32 AM 76.1 °F - 52.7 °F 44% 30.06 in 10.0 mi SSE 15.0 mph 21.9 mph N/A   Clear
1:52 AM 75.2 °F - 53.1 °F 46% 30.06 in 10.0 mi SSE 12.7 mph 17.3 mph N/A   Clear
2:12 AM 74.8 °F - 53.2 °F 47% 30.06 in 10.0 mi SSE 12.7 mph - N/A   Clear
2:32 AM 74.1 °F - 53.6 °F 49% 30.06 in 10.0 mi SSE 8.1 mph - N/A   Clear
2:52 AM 73.4 °F - 54.0 °F 50% 30.06 in 10.0 mi South 8.1 mph - N/A   Clear
3:12 AM 72.7 °F - 54.7 °F 53% 30.06 in 10.0 mi South 5.8 mph - N/A   Clear
3:32 AM 72.3 °F - 55.6 °F 56% 30.06 in 10.0 mi SSE 9.2 mph - N/A   Clear
3:52 AM 72.0 °F - 56.3 °F 58% 30.06 in 10.0 mi South 9.2 mph - N/A   Clear
4:12 AM 71.4 °F - 56.7 °F 60% 30.06 in 10.0 mi South 8.1 mph - N/A   Clear
4:32 AM 70.7 °F - 57.0 °F 62% 30.06 in 10.0 mi South 3.5 mph - N/A   Clear
4:52 AM 71.2 °F - 57.4 °F 61% 30.06 in 10.0 mi South 4.6 mph - N/A   Clear
5:12 AM 70.3 °F - 57.9 °F 65% 30.06 in 10.0 mi South 3.5 mph - N/A   Clear
5:32 AM 70.3 °F - 58.3 °F 66% 30.06 in 10.0 mi South 4.6 mph - N/A   Clear
5:52 AM 70.3 °F - 58.6 °F 66% 30.07 in 10.0 mi South 5.8 mph - N/A   Clear
6:12 AM 70.3 °F - 59.2 °F 68% 30.07 in 10.0 mi SSE 3.5 mph - N/A   Clear
6:32 AM 70.5 °F - 59.2 °F 67% 30.07 in 10.0 mi South 4.6 mph - N/A   Clear
6:52 AM 71.2 °F - 59.9 °F 67% 30.07 in 10.0 mi South 5.8 mph - N/A   Clear
7:12 AM 72.0 °F - 60.4 °F 67% 30.07 in 10.0 mi South 6.9 mph - N/A   Clear
7:32 AM 72.9 °F - 61.0 °F 66% 30.08 in 10.0 mi South 8.1 mph - N/A   Clear
7:52 AM 73.9 °F - 61.3 °F 65% 30.07 in 10.0 mi South 10.4 mph - N/A   Clear
8:12 AM 74.7 °F - 61.7 °F 64% 30.07 in 10.0 mi South 10.4 mph - N/A   Clear
8:32 AM 76.8 °F - 62.8 °F 62% 30.07 in 10.0 mi South 13.8 mph - N/A   Scattered Clouds
8:52 AM 77.5 °F - 62.6 °F 60% 30.06 in 10.0 mi South 9.2 mph 17.3 mph N/A   Scattered Clouds
9:12 AM 78.1 °F - 62.8 °F 59% 30.06 in 10.0 mi South 13.8 mph 17.3 mph N/A   Scattered Clouds
9:32 AM 77.9 °F - 62.8 °F 60% 30.06 in 10.0 mi South 10.4 mph - N/A   Mostly Cloudy
10:12 AM 78.4 °F - 62.6 °F 58% 30.05 in 10.0 mi South 10.4 mph 16.1 mph N/A   Mostly Cloudy
10:32 AM 81.0 °F 82.2 °F 62.8 °F 54% 30.05 in 10.0 mi South 13.8 mph 18.4 mph N/A   Mostly Cloudy
10:52 AM 82.6 °F 83.6 °F 63.0 °F 51% 30.04 in 10.0 mi SSE 12.7 mph 17.3 mph N/A   Scattered Clouds
11:32 AM 83.5 °F 84.3 °F 62.6 °F 49% 30.03 in 10.0 mi South 11.5 mph 19.6 mph N/A   Scattered Clouds
11:52 AM 83.7 °F 84.3 °F 62.1 °F 48% 30.03 in 10.0 mi SSE 12.7 mph - N/A   Mostly Cloudy
12:32 PM 83.5 °F 83.9 °F 61.2 °F 47% 30.01 in 10.0 mi South 10.4 mph 16.1 mph N/A   Overcast
12:52 PM 83.3 °F 83.9 °F 61.9 °F 48% 30.00 in 10.0 mi South 16.1 mph 20.7 mph N/A   Mostly Cloudy
1:12 PM 85.3 °F 85.7 °F 61.5 °F 45% 29.99 in 10.0 mi SSE 13.8 mph 20.7 mph N/A   Mostly Cloudy
1:32 PM 83.8 °F 84.3 °F 61.7 °F 47% 29.99 in 10.0 mi South 13.8 mph 23.0 mph N/A Thunderstorm Scattered Clouds
1:52 PM 83.7 °F 83.9 °F 61.0 °F 46% 29.98 in 10.0 mi South 10.4 mph - N/A   Mostly Cloudy
2:12 PM 81.7 °F 83.0 °F 63.3 °F 54% 29.98 in 10.0 mi SW 13.8 mph 19.6 mph N/A   Mostly Cloudy
2:32 PM 75.6 °F - 68.0 °F 77% 29.98 in 10.0 mi SSW 4.6 mph - N/A   Scattered Clouds
2:52 PM 78.8 °F - 69.3 °F 72% 29.96 in 10.0 mi SW 3.5 mph - N/A Rain Light Rain
3:12 PM 85.8 °F 86.1 °F 61.7 °F 44% 29.95 in 10.0 mi South 12.7 mph 19.6 mph N/A   Scattered Clouds
3:32 PM 83.3 °F 83.1 °F 58.5 °F 43% 29.94 in 10.0 mi South 12.7 mph 19.6 mph N/A Rain Light Rain
3:52 PM 83.3 °F 83.2 °F 59.2 °F 44% 29.95 in 10.0 mi South 5.8 mph - N/A Rain Light Rain
4:12 PM 81.0 °F 82.2 °F 62.8 °F 54% 29.94 in 10.0 mi SW 5.8 mph - N/A   Mostly Cloudy
4:32 PM 81.1 °F 83.2 °F 65.8 °F 60% 29.94 in 10.0 mi Calm Calm - N/A   Scattered Clouds
4:52 PM 77.0 °F - 65.8 °F 68% 29.95 in 2.5 mi WNW 34.5 mph 41.4 mph 0.17 in Rain , Thunderstorm Heavy Thunderstorms and Rain
5:12 PM 68.4 °F - 65.5 °F 90% 29.95 in 4.0 mi NNE 13.8 mph 20.7 mph 0.13 in Rain , Thunderstorm Heavy Thunderstorms and Rain
5:32 PM 69.8 °F - 67.3 °F 92% 29.99 in 0.8 mi South 11.5 mph - 0.64 in Rain , Thunderstorm Heavy Thunderstorms and Rain
5:52 PM 68.9 °F - 66.4 °F 92% 29.94 in 2.5 mi ENE 6.9 mph - 1.17 in Rain , Thunderstorm Light Thunderstorms and Rain
6:12 PM 70.9 °F - 66.6 °F 86% 29.93 in 10.0 mi East 3.5 mph - N/A Thunderstorm Overcast
6:32 PM 71.2 °F - 67.3 °F 87% 29.92 in 10.0 mi East 9.2 mph - N/A Thunderstorm Overcast
6:52 PM 71.2 °F - 67.5 °F 88% 29.92 in 7.0 mi ENE 9.2 mph - N/A   Scattered Clouds
7:12 PM 70.9 °F - 67.1 °F 88% 29.92 in 7.0 mi East 6.9 mph - N/A   Scattered Clouds
7:32 PM 71.2 °F - 67.3 °F 87% 29.91 in 10.0 mi East 5.8 mph - N/A   Scattered Clouds
7:52 PM 74.8 °F - 65.8 °F 73% 29.91 in 10.0 mi SSE 9.2 mph - N/A   Scattered Clouds
8:12 PM 74.7 °F - 64.8 °F 71% 29.92 in 10.0 mi SSW 8.1 mph - N/A Rain Rain
8:32 PM 73.0 °F - 65.5 °F 77% 29.90 in 10.0 mi South 11.5 mph 18.4 mph 0.01 in Rain Rain
8:52 PM 72.5 °F - 65.7 °F 79% 29.89 in 10.0 mi SSE 12.7 mph 18.4 mph 0.02 in   Scattered Clouds
9:12 PM 72.7 °F - 65.1 °F 77% 29.90 in 10.0 mi South 10.4 mph 16.1 mph N/A   Scattered Clouds
9:32 PM 72.5 °F - 65.3 °F 78% 29.91 in 10.0 mi SSE 5.8 mph - N/A   Mostly Cloudy
9:52 PM 72.5 °F - 64.6 °F 76% 29.92 in 10.0 mi SSE 6.9 mph - N/A   Overcast
10:12 PM 72.5 °F - 64.4 °F 76% 29.94 in 10.0 mi West 6.9 mph - N/A   Overcast
10:32 PM 72.1 °F - 64.4 °F 77% 29.94 in 10.0 mi West 6.9 mph - N/A   Overcast
10:52 PM 72.7 °F - 64.4 °F 75% 29.94 in 10.0 mi West 3.5 mph - N/A   Overcast
11:12 PM 71.6 °F - 64.8 °F 79% 29.93 in 10.0 mi Calm Calm - N/A Thunderstorm Overcast
11:32 PM 71.4 °F - 64.8 °F 79% 29.92 in 10.0 mi Calm Calm - N/A Thunderstorm Overcast
11:52 PM 69.8 °F - 65.5 °F 86% 29.92 in 10.0 mi NNW 3.5 mph - 0.01 in Rain , Thunderstorm Light Thunderstorms and Rain